| time (UTC) | temp F | wind direction | speed MPH | gust MPH | rain 1hr in | rain 24hr in | rain mn in | humidity % | barometer mb |
| 20260502170301 | 77 | 225 | 0.0 | 0.0 | 0.00 | 0.00 | 0.00 | 81 | 975.2 |
| 20260502164249 | 77 | 228 | 0.0 | 0.0 | 0.00 | 0.00 | 0.00 | 80 | 975.4 |
| 20260502163744 | 78 | 16 | 0.0 | 2.0 | 0.00 | 0.00 | 0.00 | 78 | 975.6 |
| 20260502163241 | 78 | 75 | 2.0 | 3.0 | 0.00 | 0.00 | 0.00 | 77 | 975.3 |
| 20260502162738 | 78 | 131 | 1.0 | 5.0 | 0.00 | 0.00 | 0.00 | 77 | 975.3 |
| 20260502162234 | 78 | 121 | 3.0 | 5.0 | 0.00 | 0.00 | 0.00 | 77 | 975.3 |
| 20260502161732 | 78 | 95 | 0.0 | 5.0 | 0.00 | 0.00 | 0.00 | 78 | 975.3 |
| 20260502161228 | 78 | 192 | 0.0 | 1.0 | 0.00 | 0.00 | 0.00 | 78 | 975.4 |
| 20260502160726 | 78 | 90 | 1.0 | 5.0 | 0.00 | 0.00 | 0.00 | 78 | 975.3 |
| 20260502160225 | 78 | 122 | 0.0 | 5.0 | 0.00 | 0.00 | 0.00 | 78 | 975.2 |
| 20260502152149 | 79 | 125 | 0.0 | 0.0 | 0.00 | 0.00 | 0.00 | 75 | 974.8 |
| 20260502151647 | 79 | 145 | 0.0 | 0.0 | 0.00 | 0.00 | 0.00 | 75 | 974.4 |
| 20260502151144 | 79 | 172 | 0.0 | 0.0 | 0.00 | 0.00 | 0.00 | 75 | 974.6 |
| 20260502150641 | 79 | 162 | 0.0 | 1.0 | 0.00 | 0.00 | 0.00 | 74 | 974.4 |
| 20260502150137 | 79 | 197 | 0.0 | 0.0 | 0.00 | 0.00 | 0.00 | 74 | 974.6 |
| 20260502130526 | 85 | 222 | 0.0 | 0.0 | 0.00 | 0.00 | 0.00 | 64 | 973.2 |
| 20260502123509 | 85 | 220 | 0.0 | 0.0 | 0.00 | 0.00 | 0.00 | 65 | 972.6 |
| 20260502123005 | 85 | 221 | 0.0 | 0.0 | 0.00 | 0.00 | 0.00 | 67 | 972.4 |
| 20260502122502 | 85 | 222 | 0.0 | 0.0 | 0.00 | 0.00 | 0.00 | 64 | 972.5 |
| 20260502122000 | 86 | 221 | 0.0 | 0.0 | 0.00 | 0.00 | 0.00 | 62 | 972.1 |
| 20260502121456 | 86 | 222 | 0.0 | 0.0 | 0.00 | 0.00 | 0.00 | 61 | 972.0 |
| 20260502120954 | 86 | 215 | 0.0 | 0.0 | 0.00 | 0.00 | 0.00 | 61 | 971.7 |
| 20260502120450 | 86 | 203 | 0.0 | 0.0 | 0.00 | 0.00 | 0.00 | 62 | 971.9 |
| 20260502115445 | 86 | 200 | 0.0 | 0.0 | 0.00 | 0.00 | 0.00 | 60 | 971.8 |
| 20260502114941 | 87 | 221 | 0.0 | 0.0 | 0.00 | 0.00 | 0.00 | 61 | 971.7 |
| 20260502114438 | 87 | 222 | 0.0 | 0.0 | 0.00 | 0.00 | 0.00 | 61 | 971.8 |
| 20260502113935 | 87 | 222 | 0.0 | 0.0 | 0.00 | 0.00 | 0.00 | 60 | 971.5 |
| 20260502113432 | 88 | 222 | 0.0 | 0.0 | 0.00 | 0.00 | 0.00 | 58 | 971.5 |
| 20260502112931 | 88 | 222 | 0.0 | 0.0 | 0.00 | 0.00 | 0.00 | 57 | 971.4 |
| 20260502112428 | 88 | 222 | 0.0 | 0.0 | 0.00 | 0.00 | 0.00 | 57 | 971.5 |
| 20260502111925 | 89 | 222 | 0.0 | 0.0 | 0.00 | 0.00 | 0.00 | 56 | 971.3 |
| 20260502111422 | 89 | 222 | 0.0 | 0.0 | 0.00 | 0.00 | 0.00 | 56 | 971.3 |
| 20260502110920 | 89 | 222 | 0.0 | 0.0 | 0.00 | 0.00 | 0.00 | 55 | 971.3 |
| 20260502110418 | 90 | 220 | 0.0 | 0.0 | 0.00 | 0.00 | 0.00 | 55 | 971.1 |
| 20260502105914 | 90 | 232 | 0.0 | 0.0 | 0.00 | 0.00 | 0.00 | 55 | 971.2 |
| 20260502105412 | 90 | 216 | 0.0 | 0.0 | 0.00 | 0.00 | 0.00 | 55 | 971.3 |
| 20260502104910 | 91 | 222 | 0.0 | 0.0 | 0.00 | 0.00 | 0.00 | 54 | 971.1 |
| 20260502104407 | 91 | 216 | 0.0 | 0.0 | 0.00 | 0.00 | 0.00 | 53 | 971.0 |
| 20260502103904 | 91 | 212 | 0.0 | 0.0 | 0.00 | 0.00 | 0.00 | 52 | 971.0 |
| 20260502103402 | 91 | 218 | 0.0 | 0.0 | 0.00 | 0.00 | 0.00 | 53 | 971.0 |
| 20260502102858 | 91 | 220 | 0.0 | 0.0 | 0.00 | 0.00 | 0.00 | 51 | 971.1 |
| 20260502102355 | 92 | 207 | 0.0 | 0.0 | 0.00 | 0.00 | 0.00 | 51 | 971.0 |
| 20260502101852 | 92 | 210 | 0.0 | 0.0 | 0.00 | 0.00 | 0.00 | 51 | 970.9 |
| 20260502101350 | 92 | 211 | 0.0 | 0.0 | 0.00 | 0.00 | 0.00 | 51 | 970.7 |
| 20260502100848 | 93 | 211 | 0.0 | 0.0 | 0.00 | 0.00 | 0.00 | 50 | 970.8 |
| 20260502100347 | 93 | 194 | 0.0 | 0.0 | 0.00 | 0.00 | 0.00 | 50 | 970.8 |
| 20260502091321 | 95 | 205 | 0.0 | 0.0 | 0.00 | 0.00 | 0.00 | 48 | 971.2 |
| 20260502090819 | 96 | 212 | 0.0 | 0.0 | 0.00 | 0.00 | 0.00 | 46 | 971.2 |
| 20260502090315 | 96 | 219 | 0.0 | 0.0 | 0.00 | 0.00 | 0.00 | 45 | 971.1 |
| 20260502071210 | 92 | 244 | 0.0 | 0.0 | 0.00 | 0.00 | 0.00 | 55 | 973.0 |
| 20260502070709 | 93 | 225 | 0.0 | 0.0 | 0.00 | 0.00 | 0.00 | 55 | 972.9 |
| 20260502070206 | 93 | 211 | 0.0 | 0.0 | 0.00 | 0.00 | 0.00 | 53 | 973.0 |
| 20260502065704 | 92 | 240 | 0.0 | 0.0 | 0.00 | 0.00 | 0.00 | 54 | 973.2 |
| 20260502065201 | 93 | 241 | 0.0 | 0.0 | 0.00 | 0.00 | 0.00 | 55 | 973.5 |
| 20260502064700 | 94 | 241 | 0.0 | 0.0 | 0.00 | 0.00 | 0.00 | 53 | 973.6 |
| 20260502064156 | 93 | 227 | 0.0 | 0.0 | 0.00 | 0.00 | 0.00 | 56 | 973.8 |
| 20260502063655 | 93 | 213 | 0.0 | 0.0 | 0.00 | 0.00 | 0.00 | 57 | 973.7 |
| 20260502063152 | 93 | 207 | 0.0 | 0.0 | 0.00 | 0.00 | 0.00 | 56 | 974.0 |
| 20260502062649 | 93 | 188 | 0.0 | 0.0 | 0.00 | 0.00 | 0.00 | 56 | 974.2 |
| 20260502062147 | 93 | 214 | 0.0 | 0.0 | 0.00 | 0.00 | 0.00 | 57 | 974.1 |
| 20260502061645 | 93 | 251 | 0.0 | 1.0 | 0.00 | 0.00 | 0.00 | 55 | 974.2 |
| 20260502061143 | 94 | 222 | 0.0 | 1.0 | 0.00 | 0.00 | 0.00 | 54 | 974.4 |
| 20260502060642 | 94 | 248 | 0.0 | 0.0 | 0.00 | 0.00 | 0.00 | 52 | 974.4 |
| 20260502060139 | 94 | 217 | 0.0 | 1.0 | 0.00 | 0.00 | 0.00 | 52 | 974.6 |
| 20260502055637 | 93 | 220 | 0.0 | 0.0 | 0.00 | 0.00 | 0.00 | 56 | 974.7 |
| 20260502055135 | 94 | 194 | 0.0 | 0.0 | 0.00 | 0.00 | 0.00 | 55 | 974.8 |
| 20260502054634 | 94 | 196 | 0.0 | 0.0 | 0.00 | 0.00 | 0.00 | 51 | 975.0 |
| 20260502054130 | 95 | 207 | 0.0 | 0.0 | 0.00 | 0.00 | 0.00 | 52 | 974.9 |
| 20260502053628 | 95 | 222 | 0.0 | 0.0 | 0.00 | 0.00 | 0.00 | 52 | 975.0 |
| 20260502053125 | 93 | 206 | 0.0 | 1.0 | 0.00 | 0.00 | 0.00 | 55 | 975.0 |
| 20260502052623 | 93 | 203 | 0.0 | 0.0 | 0.00 | 0.00 | 0.00 | 54 | 975.2 |
| 20260502052121 | 93 | 205 | 0.0 | 1.0 | 0.00 | 0.00 | 0.00 | 57 | 975.3 |
| 20260502051619 | 92 | 190 | 0.0 | 1.0 | 0.00 | 0.00 | 0.00 | 57 | 975.3 |
| 20260502051117 | 92 | 235 | 0.0 | 2.0 | 0.00 | 0.00 | 0.00 | 61 | 975.5 |
| 20260502050613 | 91 | 225 | 0.0 | 0.0 | 0.00 | 0.00 | 0.00 | 61 | 975.5 |
| 20260502050110 | 91 | 198 | 0.0 | 1.0 | 0.00 | 0.00 | 0.00 | 59 | 975.5 |
| 20260502045606 | 91 | 216 | 0.0 | 1.0 | 0.00 | 0.00 | 0.00 | 58 | 975.5 |
| 20260502045104 | 91 | 209 | 0.0 | 0.0 | 0.00 | 0.00 | 0.00 | 61 | 975.7 |
| 20260502044600 | 91 | 101 | 0.0 | 1.0 | 0.00 | 0.00 | 0.00 | 57 | 975.9 |
| 20260502044057 | 93 | 228 | 0.0 | 0.0 | 0.00 | 0.00 | 0.00 | 58 | 975.8 |
| 20260502043554 | 93 | 236 | 0.0 | 1.0 | 0.00 | 0.00 | 0.00 | 56 | 976.0 |
| 20260502043050 | 92 | 217 | 1.0 | 1.0 | 0.00 | 0.00 | 0.00 | 56 | 976.2 |
| 20260502042545 | 91 | 212 | 0.0 | 1.0 | 0.00 | 0.00 | 0.00 | 60 | 975.9 |
| 20260502042043 | 91 | 230 | 0.0 | 0.0 | 0.00 | 0.00 | 0.00 | 63 | 976.1 |
| 20260502041540 | 91 | 202 | 0.0 | 0.0 | 0.00 | 0.00 | 0.00 | 58 | 976.3 |
| 20260502041037 | 92 | 263 | 0.0 | 2.0 | 0.00 | 0.00 | 0.00 | 62 | 976.2 |
| 20260502040533 | 93 | 255 | 0.0 | 0.0 | 0.00 | 0.00 | 0.00 | 58 | 976.6 |
| 20260502040031 | 93 | 184 | 0.0 | 0.0 | 0.00 | 0.00 | 0.00 | 60 | 976.5 |
| 20260502035527 | 92 | 211 | 0.0 | 1.0 | 0.00 | 0.00 | 0.00 | 61 | 976.3 |
| 20260502035025 | 91 | 224 | 0.0 | 0.0 | 0.00 | 0.00 | 0.00 | 63 | 976.5 |
| 20260502034523 | 91 | 217 | 0.0 | 0.0 | 0.00 | 0.00 | 0.00 | 61 | 976.7 |
| 20260502034021 | 91 | 186 | 0.0 | 1.0 | 0.00 | 0.00 | 0.00 | 64 | 976.7 |
| 20260502033518 | 90 | 234 | 0.0 | 1.0 | 0.00 | 0.00 | 0.00 | 66 | 976.7 |
| 20260502033015 | 89 | 218 | 0.0 | 1.0 | 0.00 | 0.00 | 0.00 | 65 | 976.6 |
| 20260502032511 | 89 | 208 | 0.0 | 0.0 | 0.00 | 0.00 | 0.00 | 65 | 976.7 |
| 20260502032008 | 89 | 195 | 0.0 | 0.0 | 0.00 | 0.00 | 0.00 | 64 | 976.6 |
| 20260502031506 | 90 | 196 | 0.0 | 1.0 | 0.00 | 0.00 | 0.00 | 64 | 976.9 |
| 20260502031004 | 90 | 201 | 0.0 | 1.0 | 0.00 | 0.00 | 0.00 | 66 | 976.9 |
| 20260502030502 | 90 | 242 | 1.0 | 1.0 | 0.00 | 0.00 | 0.00 | 68 | 976.9 |
| 20260502030000 | 88 | 225 | 0.0 | 0.0 | 0.00 | 0.00 | 0.00 | 67 | 977.0 |
| 20260502025457 | 87 | 197 | 0.0 | 1.0 | 0.00 | 0.00 | 0.00 | 68 | 977.0 |
| 20260502024954 | 88 | 194 | 0.0 | 0.0 | 0.00 | 0.00 | 0.00 | 68 | 976.9 |
| 20260502024452 | 88 | 224 | 0.0 | 1.0 | 0.00 | 0.00 | 0.00 | 71 | 976.8 |
| 20260502023950 | 88 | 221 | 0.0 | 0.0 | 0.00 | 0.00 | 0.00 | 68 | 976.9 |
| 20260502023447 | 87 | 221 | 0.0 | 0.0 | 0.00 | 0.00 | 0.00 | 71 | 977.0 |
| 20260502022945 | 86 | 199 | 0.0 | 0.0 | 0.00 | 0.00 | 0.00 | 71 | 976.7 |
| 20260502022441 | 85 | 224 | 0.0 | 0.0 | 0.00 | 0.00 | 0.00 | 74 | 977.0 |
| 20260502021938 | 85 | 222 | 0.0 | 0.0 | 0.00 | 0.00 | 0.00 | 74 | 976.8 |
| 20260502021436 | 83 | 191 | 0.0 | 0.0 | 0.00 | 0.00 | 0.00 | 76 | 977.0 |
| 20260502020933 | 83 | 218 | 0.0 | 0.0 | 0.00 | 0.00 | 0.00 | 76 | 977.1 |
| 20260502020431 | 83 | 213 | 0.0 | 1.0 | 0.00 | 0.00 | 0.00 | 78 | 976.9 |
| 20260502015927 | 83 | 205 | 0.0 | 0.0 | 0.00 | 0.00 | 0.00 | 78 | 977.0 |
| 20260502015425 | 83 | 221 | 0.0 | 0.0 | 0.00 | 0.00 | 0.00 | 77 | 976.9 |
| 20260502014921 | 84 | 219 | 0.0 | 1.0 | 0.00 | 0.00 | 0.00 | 77 | 976.7 |
| 20260502014419 | 83 | 201 | 0.0 | 1.0 | 0.00 | 0.00 | 0.00 | 76 | 976.7 |
| 20260502013915 | 82 | 207 | 0.0 | 1.0 | 0.00 | 0.00 | 0.00 | 78 | 976.7 |
| 20260502013410 | 82 | 224 | 0.0 | 0.0 | 0.00 | 0.00 | 0.00 | 78 | 976.6 |
| 20260502012907 | 82 | 230 | 0.0 | 1.0 | 0.00 | 0.00 | 0.00 | 78 | 976.6 |
| 20260502012405 | 82 | 214 | 0.0 | 1.0 | 0.00 | 0.00 | 0.00 | 78 | 976.5 |
| 20260502011902 | 81 | 212 | 0.0 | 0.0 | 0.00 | 0.00 | 0.00 | 81 | 976.3 |
| 20260502011358 | 80 | 196 | 0.0 | 1.0 | 0.00 | 0.00 | 0.00 | 81 | 976.5 |
| 20260502010855 | 80 | 201 | 0.0 | 0.0 | 0.00 | 0.00 | 0.00 | 83 | 976.3 |
| 20260502010352 | 80 | 201 | 0.0 | 0.0 | 0.00 | 0.00 | 0.00 | 84 | 976.1 |
| 20260502005848 | 80 | 213 | 0.0 | 0.0 | 0.00 | 0.00 | 0.00 | 85 | 976.3 |
| 20260502005347 | 80 | 212 | 0.0 | 0.0 | 0.00 | 0.00 | 0.00 | 85 | 976.1 |
| 20260502004844 | 79 | 206 | 0.0 | 0.0 | 0.00 | 0.00 | 0.00 | 87 | 976.1 |
| 20260502004340 | 79 | 213 | 0.0 | 0.0 | 0.00 | 0.00 | 0.00 | 88 | 976.1 |
| 20260502003838 | 78 | 212 | 0.0 | 0.0 | 0.00 | 0.00 | 0.00 | 88 | 976.2 |
| 20260502003334 | 78 | 217 | 0.0 | 0.0 | 0.00 | 0.00 | 0.00 | 89 | 976.1 |
| 20260502002831 | 77 | 212 | 0.0 | 0.0 | 0.00 | 0.00 | 0.00 | 91 | 976.0 |
| 20260502002328 | 76 | 218 | 0.0 | 0.0 | 0.00 | 0.00 | 0.00 | 91 | 975.8 |
| 20260502001825 | 76 | 213 | 0.0 | 0.0 | 0.00 | 0.00 | 0.00 | 92 | 975.8 |
| 20260502001323 | 76 | 214 | 0.0 | 0.0 | 0.00 | 0.00 | 0.00 | 92 | 975.9 |
| 20260502000820 | 76 | 207 | 0.0 | 0.0 | 0.00 | 0.00 | 0.00 | 92 | 975.7 |
| 20260502000318 | 75 | 205 | 0.0 | 0.0 | 0.00 | 0.00 | 0.00 | 93 | 975.7 |
| 20260501235814 | 74 | 217 | 0.0 | 0.0 | 0.00 | 0.00 | 0.00 | 94 | 975.5 |
| 20260501235310 | 74 | 217 | 0.0 | 0.0 | 0.00 | 0.00 | 0.00 | 94 | 975.5 |
| 20260501234805 | 74 | 217 | 0.0 | 0.0 | 0.00 | 0.00 | 0.00 | 96 | 975.5 |
| 20260501234303 | 73 | 217 | 0.0 | 0.0 | 0.00 | 0.00 | 0.00 | 96 | 975.4 |
| 20260501233801 | 73 | 218 | 0.0 | 0.0 | 0.00 | 0.00 | 0.00 | 96 | 975.4 |
| 20260501233258 | 73 | 221 | 0.0 | 0.0 | 0.00 | 0.00 | 0.00 | 95 | 975.2 |
| 20260501232753 | 73 | 212 | 0.0 | 0.0 | 0.00 | 0.00 | 0.00 | 97 | 975.5 |
| 20260501232251 | 72 | 212 | 0.0 | 0.0 | 0.00 | 0.00 | 0.00 | 96 | 975.3 |
| 20260501231749 | 72 | 212 | 0.0 | 0.0 | 0.00 | 0.00 | 0.00 | 97 | 975.1 |
| 20260501231247 | 72 | 214 | 0.0 | 0.0 | 0.00 | 0.00 | 0.00 | 96 | 975.1 |
| 20260501230745 | 72 | 214 | 0.0 | 0.0 | 0.00 | 0.00 | 0.00 | 96 | 974.9 |
| 20260501230243 | 72 | 215 | 0.0 | 0.0 | 0.00 | 0.00 | 0.00 | 96 | 974.8 |
| 20260501225740 | 72 | 214 | 0.0 | 0.0 | 0.00 | 0.00 | 0.00 | 96 | 975.1 |
| 20260501225237 | 72 | 215 | 0.0 | 0.0 | 0.00 | 0.00 | 0.00 | 96 | 974.9 |
| 20260501224733 | 72 | 215 | 0.0 | 0.0 | 0.00 | 0.00 | 0.00 | 96 | 974.8 |
| 20260501224231 | 72 | 214 | 0.0 | 0.0 | 0.00 | 0.00 | 0.00 | 96 | 974.6 |
| 20260501223727 | 72 | 215 | 0.0 | 0.0 | 0.00 | 0.00 | 0.00 | 96 | 974.7 |
| 20260501223224 | 72 | 215 | 0.0 | 0.0 | 0.00 | 0.00 | 0.00 | 96 | 974.8 |
| 20260501222720 | 72 | 213 | 0.0 | 0.0 | 0.00 | 0.00 | 0.00 | 95 | 974.7 |
| 20260501222217 | 72 | 213 | 0.0 | 0.0 | 0.00 | 0.00 | 0.00 | 95 | 974.6 |
| 20260501221714 | 72 | 213 | 0.0 | 0.0 | 0.00 | 0.00 | 0.00 | 95 | 974.5 |
| 20260501221211 | 73 | 213 | 0.0 | 0.0 | 0.00 | 0.00 | 0.00 | 95 | 974.4 |
| 20260501220709 | 73 | 219 | 0.0 | 0.0 | 0.00 | 0.00 | 0.00 | 94 | 974.6 |
| 20260501220206 | 73 | 220 | 0.0 | 0.0 | 0.00 | 0.00 | 0.00 | 94 | 974.3 |
| 20260501215703 | 73 | 218 | 0.0 | 0.0 | 0.00 | 0.00 | 0.00 | 94 | 974.3 |
| 20260501215158 | 73 | 218 | 0.0 | 0.0 | 0.00 | 0.00 | 0.00 | 94 | 974.2 |
| 20260501214653 | 73 | 213 | 0.0 | 0.0 | 0.00 | 0.00 | 0.00 | 93 | 974.2 |
| 20260501214148 | 73 | 220 | 0.0 | 0.0 | 0.00 | 0.00 | 0.00 | 93 | 974.2 |
| 20260501213646 | 73 | 213 | 0.0 | 0.0 | 0.00 | 0.00 | 0.00 | 93 | 974.2 |
| 20260501213141 | 73 | 213 | 0.0 | 0.0 | 0.00 | 0.00 | 0.00 | 92 | 974.0 |
| 20260501212638 | 73 | 218 | 0.0 | 0.0 | 0.00 | 0.00 | 0.00 | 92 | 974.2 |
| 20260501212135 | 73 | 219 | 0.0 | 0.0 | 0.00 | 0.00 | 0.00 | 91 | 974.1 |
| 20260501211632 | 74 | 217 | 0.0 | 0.0 | 0.00 | 0.00 | 0.00 | 91 | 974.1 |
| 20260501211130 | 74 | 218 | 0.0 | 0.0 | 0.00 | 0.00 | 0.00 | 91 | 974.0 |
| 20260501210626 | 74 | 218 | 0.0 | 0.0 | 0.00 | 0.00 | 0.00 | 90 | 974.1 |
| 20260501210123 | 74 | 215 | 0.0 | 0.0 | 0.00 | 0.00 | 0.00 | 90 | 974.1 |
| 20260501205619 | 74 | 214 | 0.0 | 0.0 | 0.00 | 0.00 | 0.00 | 90 | 974.1 |
| 20260501205117 | 74 | 213 | 0.0 | 0.0 | 0.00 | 0.00 | 0.00 | 90 | 973.6 |
| 20260501204613 | 74 | 213 | 0.0 | 0.0 | 0.00 | 0.00 | 0.00 | 90 | 973.8 |
| 20260501204109 | 74 | 215 | 0.0 | 0.0 | 0.00 | 0.00 | 0.00 | 90 | 973.8 |
| 20260501203606 | 74 | 213 | 0.0 | 0.0 | 0.00 | 0.00 | 0.00 | 90 | 973.9 |
| 20260501203103 | 74 | 213 | 0.0 | 0.0 | 0.00 | 0.00 | 0.00 | 90 | 974.1 |
| 20260501202600 | 74 | 213 | 0.0 | 0.0 | 0.00 | 0.00 | 0.00 | 90 | 973.9 |
| 20260501202057 | 74 | 213 | 0.0 | 0.0 | 0.00 | 0.00 | 0.00 | 90 | 974.0 |
| 20260501201554 | 74 | 213 | 0.0 | 0.0 | 0.00 | 0.00 | 0.00 | 90 | 974.0 |
| 20260501201050 | 74 | 213 | 0.0 | 0.0 | 0.00 | 0.00 | 0.00 | 90 | 974.1 |
| 20260501200547 | 74 | 213 | 0.0 | 0.0 | 0.00 | 0.00 | 0.00 | 90 | 974.2 |
| 20260501200045 | 74 | 213 | 0.0 | 0.0 | 0.00 | 0.00 | 0.00 | 90 | 974.1 |
| 20260501195542 | 75 | 213 | 0.0 | 0.0 | 0.00 | 0.00 | 0.00 | 90 | 974.0 |
| 20260501195037 | 75 | 218 | 0.0 | 0.0 | 0.00 | 0.00 | 0.00 | 89 | 974.0 |
| 20260501194533 | 75 | 218 | 0.0 | 0.0 | 0.00 | 0.00 | 0.00 | 89 | 974.2 |
| 20260501194029 | 75 | 213 | 0.0 | 0.0 | 0.00 | 0.00 | 0.00 | 88 | 974.2 |
| 20260501193527 | 75 | 213 | 0.0 | 0.0 | 0.00 | 0.00 | 0.00 | 88 | 974.3 |
| 20260501193025 | 75 | 213 | 0.0 | 0.0 | 0.00 | 0.00 | 0.00 | 88 | 974.3 |
| 20260501192522 | 75 | 213 | 0.0 | 0.0 | 0.00 | 0.00 | 0.00 | 88 | 974.5 |
| 20260501192020 | 75 | 213 | 0.0 | 0.0 | 0.00 | 0.00 | 0.00 | 88 | 974.6 |
| 20260501191516 | 75 | 213 | 0.0 | 0.0 | 0.00 | 0.00 | 0.00 | 88 | 974.8 |
| 20260501191014 | 75 | 213 | 0.0 | 0.0 | 0.00 | 0.00 | 0.00 | 88 | 974.9 |
| 20260501190509 | 75 | 213 | 0.0 | 0.0 | 0.00 | 0.00 | 0.00 | 88 | 974.9 |
| 20260501190005 | 75 | 213 | 0.0 | 0.0 | 0.00 | 0.00 | 0.00 | 88 | 975.1 |
| 20260501185501 | 75 | 213 | 0.0 | 0.0 | 0.00 | 0.00 | 0.00 | 89 | 975.1 |
| 20260501184957 | 75 | 213 | 0.0 | 0.0 | 0.00 | 0.00 | 0.00 | 89 | 975.1 |
| 20260501184454 | 75 | 213 | 0.0 | 0.0 | 0.00 | 0.00 | 0.00 | 89 | 975.2 |
| 20260501183948 | 75 | 213 | 0.0 | 0.0 | 0.00 | 0.00 | 0.00 | 89 | 975.2 |
| 20260501183445 | 75 | 213 | 0.0 | 0.0 | 0.00 | 0.00 | 0.00 | 89 | 975.0 |
| 20260501182942 | 75 | 213 | 0.0 | 0.0 | 0.00 | 0.00 | 0.00 | 89 | 975.3 |
| 20260501182439 | 75 | 215 | 0.0 | 0.0 | 0.00 | 0.00 | 0.00 | 89 | 975.3 |
| 20260501181936 | 75 | 213 | 0.0 | 0.0 | 0.00 | 0.00 | 0.00 | 89 | 975.5 |
| 20260501181433 | 75 | 213 | 0.0 | 0.0 | 0.00 | 0.00 | 0.00 | 90 | 975.4 |
| 20260501180930 | 75 | 213 | 0.0 | 0.0 | 0.00 | 0.00 | 0.00 | 89 | 975.2 |
| 20260501180427 | 75 | 213 | 0.0 | 0.0 | 0.00 | 0.00 | 0.00 | 88 | 975.2 |
| 20260501175923 | 75 | 213 | 0.0 | 0.0 | 0.00 | 0.00 | 0.00 | 88 | 975.1 |
| 20260501175420 | 75 | 213 | 0.0 | 0.0 | 0.00 | 0.00 | 0.00 | 87 | 975.1 |
| 20260501174917 | 76 | 213 | 0.0 | 0.0 | 0.00 | 0.00 | 0.00 | 87 | 975.1 |
| 20260501174415 | 76 | 212 | 0.0 | 0.0 | 0.00 | 0.00 | 0.00 | 87 | 975.0 |
| 20260501173912 | 76 | 212 | 0.0 | 0.0 | 0.00 | 0.00 | 0.00 | 86 | 975.2 |
| 20260501173410 | 76 | 213 | 0.0 | 0.0 | 0.00 | 0.00 | 0.00 | 86 | 975.2 |
| 20260501172905 | 76 | 213 | 0.0 | 0.0 | 0.00 | 0.00 | 0.00 | 85 | 975.1 |
| 20260501172400 | 76 | 206 | 0.0 | 0.0 | 0.00 | 0.00 | 0.00 | 85 | 975.1 |
| 20260501171856 | 76 | 194 | 0.0 | 0.0 | 0.00 | 0.00 | 0.00 | 86 | 974.8 |
| 20260501171353 | 76 | 202 | 0.0 | 0.0 | 0.00 | 0.00 | 0.00 | 86 | 975.1 |